Wind_Speed
10 9 6 4 4 2 7 7 2 4 4 1 5 4 7 8 4 0 2 19 23 27 28 27 26 24 21 18 15 13 13 14 15 14 13 11 12 14 16 17 16 15 14 13 12 12 11 12 12
8 6 5 2 5 10 11 7 10 11 5 8 7 1 5 4 4 2 12 21 28 26 28 29 28 26 23 19 15 12 11 12 13 13 13 12 13 15 17 16 15 14 13 13 12 12 12 12 12
6 7 4 3 5 16 12 7 9 9 6 5 4 3 5 2 4 4 16 20 28 27 29 30 29 26 24 21 17 13 11 11 12 13 13 13 14 16 17 15 13 12 12 12 12 12 13 13 12
6 4 2 5 13 7 13 10 2 1 1 2 3 9 6 6 6 10 18 19 26 28 29 29 29 27 25 21 18 14 12 11 12 13 13 14 15 16 16 15 13 12 11 11 11 12 12 13 13
8 2 4 5 13 5 7 8 6 4 3 3 8 6 7 6 4 14 17 21 22 27 30 30 29 28 25 23 20 17 15 13 12 12 13 14 15 16 16 14 12 11 10 11 11 11 11 12 13
5 2 4 14 16 8 8 14 12 13 10 8 4 5 7 9 11 10 12 23 19 27 31 30 29 27 24 22 20 17 16 15 14 13 13 13 14 15 14 13 12 11 10 10 11 11 11 11 12
5 5 10 8 7 10 13 9 10 11 11 7 4 5 6 10 12 15 14 21 22 30 31 30 29 26 24 22 20 18 17 15 13 12 12 12 13 13 13 13 12 11 11 11 11 12 12 12 13
6 4 6 9 11 14 5 5 8 14 15 5 4 6 5 8 15 17 19 22 26 31 30 31 30 28 25 23 21 20 18 16 14 12 11 11 12 12 12 11 10 10 10 11 13 14 14 14 14
9 7 12 14 13 11 3 7 6 6 6 4 2 9 9 11 16 21 25 24 28 30 29 31 31 29 27 25 23 20 18 17 15 13 12 12 13 13 13 12 10 9 8 9 11 13 13 13 13
11 9 15 6 14 8 4 8 6 3 5 3 2 6 3 9 20 25 29 29 31 31 32 31 31 30 28 27 26 24 21 21 19 17 15 14 12 12 12 12 11 10 10 10 10 11 13 14 15
11 17 11 10 17 17 14 12 6 6 10 10 0 6 3 11 17 22 25 26 30 30 30 31 30 29 29 29 28 26 25 23 21 20 18 16 14 14 14 14 15 14 14 12 13 13 13 13 13
11 13 16 11 17 10 12 11 7 15 19 6 6 9 4 11 17 22 26 28 29 27 26 28 29 29 29 28 27 27 26 25 25 23 21 18 16 15 14 12 12 13 13 13 13 13 13 13 14
18 13 15 25 18 17 11 13 10 11 17 15 18 19 14 12 18 19 22 25 25 25 23 25 25 27 29 28 27 26 26 26 26 24 22 20 18 15 13 13 13 14 16 17 16 15 14 14 14
6 22 22 18 21 19 18 22 18 12 20 22 20 19 15 12 20 21 21 24 24 23 22 23 24 26 28 27 26 27 28 27 26 25 22 19 17 15 14 14 14 14 15 16 14 12 12 14 14
11 11 12 19 23 15 7 21 21 20 27 26 22 22 19 14 17 25 24 24 24 23 23 23 21 24 27 27 27 28 28 25 24 24 22 19 17 15 16 16 14 13 11 14 14 13 12 13 13
12 18 20 14 12 11 20 22 3 28 31 30 24 23 22 21 18 23 25 25 24 23 22 24 24 24 27 27 27 28 25 21 21 21 19 18 19 17 16 16 14 11 10 11 12 13 14 14 15
13 15 19 15 20 13 20 10 15 20 19 24 23 24 22 21 21 24 24 23 21 20 20 23 27 27 29 29 30 25 20 19 17 18 18 17 17 18 15 13 11 10 6 9 12 11 15 19 19
19 23 14 17 13 23 22 17 3 10 18 17 18 18 18 19 21 22 23 24 24 24 25 25 28 32 32 33 29 24 20 21 19 18 17 18 17 18 18 15 11 11 3 14 16 15 15 16 18
10 17 22 15 11 17 27 22 17 14 12 15 17 17 19 18 21 23 22 26 28 30 29 29 31 32 33 33 29 24 23 19 18 17 17 21 21 13 12 8 4 4 8 15 22 16 14 16 14
17 17 17 12 18 14 13 22 21 21 20 21 21 20 19 18 18 21 20 24 27 30 31 32 31 32 32 32 28 22 17 19 18 17 18 20 18 18 3 5 2 10 11 17 17 14 14 15 15
26 20 13 6 11 18 5 16 15 15 18 20 23 21 20 22 24 24 21 22 26 29 32 32 33 31 28 27 24 22 19 19 20 19 15 11 9 14 12 8 15 12 17 17 14 14 15 15 16
26 25 15 13 13 10 11 5 13 20 18 17 22 21 22 23 25 25 25 23 23 27 31 30 31 25 24 25 22 21 22 24 22 16 17 14 13 14 14 15 19 17 16 14 13 14 14 15 16
23 17 22 16 9 5 9 6 9 9 17 17 18 21 21 25 25 24 22 22 22 25 26 26 21 21 23 23 18 20 22 20 16 20 19 18 17 18 17 16 15 14 11 9 9 11 13 16 17
13 17 20 17 10 10 18 12 7 10 17 14 10 12 13 14 18 16 16 22 24 25 26 23 21 19 14 14 17 21 20 16 18 21 21 20 19 15 12 9 8 8 9 10 12 14 16 19 22
22 22 9 11 10 12 19 12 13 8 9 12 13 14 13 12 15 17 18 22 24 25 26 23 22 22 19 15 16 16 12 13 15 17 18 15 13 11 11 10 9 9 11 12 14 16 19 22 23
30 26 10 14 16 18 6 13 8 23 7 1 15 17 15 14 16 18 20 23 24 24 23 22 22 19 11 9 1 6 8 13 14 15 15 13 11 9 7 6 7 8 10 12 15 18 19 21 22
30 23 14 6 10 10 9 4 3 10 8 11 16 18 17 16 18 20 24 26 27 26 26 22 18 18 8 11 14 9 15 10 13 14 12 10 8 7 5 7 8 10 12 14 16 18 20 21 23
26 28 15 6 11 10 12 16 5 12 13 13 15 17 18 21 23 25 27 25 25 24 23 14 9 10 8 4 19 17 13 13 13 11 9 6 5 4 5 7 9 11 13 15 17 19 21 22 22
9 18 15 10 3 6 7 8 3 7 16 18 16 20 21 24 28 30 25 24 23 21 21 20 18 15 20 19 20 17 16 13 9 6 4 4 3 3 5 8 10 12 14 17 19 20 22 22 20
21 27 26 14 10 2 3 4 2 6 13 16 19 22 22 25 26 26 27 26 25 23 23 23 24 25 25 25 21 16 12 8 4 2 2 3 4 5 8 10 12 15 17 20 21 22 21 20 20
Wind_Direction
236 236 243 195 214 250 223 217 204 185 216 156 299 254 255 293 232 20 257 168 172 174 173 172 171 169 166 161 164 163 161 165 170 172 171 165 157 152 149 148 148 149 149 148 149 149 148 145 141
230 204 191 152 226 222 230 206 194 219 219 314 306 295 250 276 233 279 151 162 169 177 173 173 173 171 165 165 167 163 160 162 166 166 167 167 161 155 152 151 151 153 154 153 153 151 148 147 145
203 173 168 209 222 230 248 223 234 251 275 264 291 282 289 246 269 206 169 167 171 178 176 175 175 173 169 169 167 163 158 156 162 165 168 166 163 160 157 155 155 157 158 158 157 153 152 152 150
169 149 90 231 226 231 238 246 176 260 46 176 336 292 291 256 264 205 174 175 173 180 179 176 176 175 172 171 170 165 157 156 161 165 166 165 165 164 162 160 159 160 162 164 164 161 159 157 156
172 151 205 231 244 238 247 247 243 256 295 212 324 289 274 266 274 173 179 178 182 182 182 179 179 179 178 178 177 172 166 160 161 166 168 168 168 169 168 167 168 167 169 171 172 171 167 165 165
163 144 217 231 232 239 246 241 260 263 262 266 241 278 268 248 223 199 189 184 184 185 183 181 180 182 182 182 179 177 171 165 161 163 169 171 173 176 177 177 179 178 178 181 182 180 177 175 176
216 191 227 231 253 266 245 203 217 261 248 239 267 247 253 242 216 205 197 187 186 184 184 182 181 183 184 184 184 182 177 170 163 161 168 173 178 182 184 184 183 183 184 188 191 191 188 186 187
200 218 209 222 224 256 228 186 214 237 260 244 211 227 231 244 207 189 186 185 181 183 187 184 185 186 186 187 188 187 183 180 173 166 168 177 183 187 190 190 191 191 193 194 195 197 198 196 197
176 228 232 223 203 231 128 209 211 191 248 311 216 270 274 265 208 177 177 177 178 184 190 189 190 190 190 191 191 192 190 190 185 178 177 182 188 193 196 198 199 198 199 203 204 206 207 209 211
198 226 225 223 225 248 210 199 159 248 269 237 68 0 194 210 189 182 178 176 179 186 192 193 194 194 194 194 195 195 196 196 196 194 192 189 193 195 198 200 203 206 204 203 202 208 213 217 219
210 233 220 216 227 241 248 244 244 236 270 236 198 36 144 180 182 179 178 181 183 191 194 194 197 199 201 201 200 201 203 204 203 203 201 197 197 198 200 202 203 205 203 202 203 205 209 215 222
235 231 226 228 231 225 236 250 233 225 237 184 272 310 308 201 191 183 179 184 189 193 196 199 201 204 207 209 209 210 209 208 209 208 205 205 205 206 205 207 209 210 213 213 211 211 213 219 223
231 230 218 233 239 231 233 235 237 225 246 252 269 282 283 232 207 195 189 191 196 199 197 200 202 206 212 213 215 217 217 216 212 210 209 210 210 210 209 207 210 212 206 213 217 213 222 232 241
230 224 234 236 237 240 246 254 243 235 257 261 262 262 268 250 216 204 201 202 205 207 206 203 205 209 212 217 220 222 222 220 215 214 213 214 216 215 217 214 211 208 209 212 217 223 226 240 247
216 229 232 237 235 239 208 255 239 233 241 250 252 258 255 246 229 219 222 221 219 218 215 213 213 215 217 218 222 224 226 224 221 219 215 216 218 218 225 223 218 207 206 217 221 235 243 255 265
217 239 242 207 196 218 201 244 197 222 222 239 244 246 245 244 235 219 218 224 226 222 227 220 219 221 221 224 226 227 229 226 225 224 222 220 221 221 222 215 210 211 221 246 238 247 257 263 267
205 226 225 230 213 205 199 257 240 232 201 224 231 234 238 236 228 221 220 219 223 225 223 222 221 221 222 226 228 226 223 219 222 219 218 224 229 225 219 223 216 220 230 277 270 252 264 268 267
210 215 209 206 189 213 212 231 233 178 202 218 234 227 233 234 224 225 223 220 219 220 221 222 218 221 222 224 225 217 225 219 215 212 213 219 215 213 218 224 205 221 179 273 269 263 267 258 265
225 205 215 206 193 195 218 222 222 228 229 238 238 241 233 227 229 228 220 220 221 222 221 221 219 221 223 224 221 218 214 214 215 220 218 216 212 210 230 346 193 267 241 259 253 248 251 255 261
229 214 213 203 217 207 222 233 223 233 241 235 228 231 237 231 229 237 231 226 225 224 220 220 221 221 220 226 221 213 210 212 218 227 229 242 245 259 102 65 41 243 259 260 254 250 253 265 282
220 218 197 168 180 210 239 241 219 219 220 218 227 230 232 232 235 236 234 230 225 224 219 219 222 224 218 221 215 215 216 216 211 210 215 190 138 123 122 144 230 232 235 243 255 256 261 272 281
216 216 217 199 193 189 199 251 215 208 211 207 207 216 226 227 232 234 234 227 223 221 214 218 222 222 213 219 216 220 220 211 208 200 188 189 187 191 201 203 228 242 243 241 253 265 275 282 291
223 186 205 212 206 194 184 234 228 200 215 209 206 213 224 227 227 223 226 217 210 204 202 210 213 218 214 215 214 213 212 210 209 186 189 193 191 194 202 212 222 231 236 252 261 276 287 297 302
200 179 193 209 228 237 211 208 212 205 218 203 176 185 198 200 198 193 189 194 194 194 197 201 197 197 200 220 213 206 207 213 198 190 190 185 181 180 184 190 207 226 246 263 273 283 289 290 290
199 166 155 185 197 216 208 201 225 233 228 212 183 155 153 149 143 148 161 178 182 183 185 187 178 175 186 190 200 209 200 206 206 187 181 178 177 180 191 206 224 246 263 274 282 287 290 292 294
192 182 174 174 188 204 155 212 223 221 208 138 135 139 138 143 135 136 154 162 162 164 170 167 159 151 155 128 159 131 185 173 179 178 173 172 177 184 198 217 248 266 280 290 297 299 301 302 302
192 195 194 135 184 162 177 197 230 185 146 134 128 130 135 137 135 147 156 155 154 156 155 151 157 161 197 306 298 257 211 208 181 174 172 178 186 202 228 260 277 294 305 308 311 314 312 309 307
185 196 203 217 168 179 192 206 156 174 166 151 144 134 124 127 136 145 149 149 154 157 158 146 147 163 175 152 203 203 196 181 174 160 167 180 200 234 268 290 305 314 318 320 320 318 313 310 311
205 191 203 208 229 183 155 199 117 173 166 159 149 138 132 129 137 141 131 130 133 141 152 149 140 139 141 154 168 164 159 160 158 156 185 225 254 289 306 314 319 323 326 325 323 318 315 316 319
202 192 195 189 195 192 188 128 27 133 151 149 135 126 126 122 129 127 124 123 122 119 126 127 126 130 138 150 153 156 155 153 140 139 264 286 302 308 313 317 323 326 325 323 321 318 319 321 320
Height
1505 1506 1507 1509 1513 1511 1505 1499 1498 1497 1495 1494 1493 1493 1490 1489 1485 1491 1485 1487 1491 1496 1499 1503 1507 1511 1515 1517 1520 1522 1524 1525 1527 1528 1530 1532 1534 1535 1536 1538 1539 1540 1542 1543 1544 1545 1545 1546 1546
1503 1505 1507 1508 1506 1508 1496 1492 1494 1490 1490 1491 1491 1491 1490 1485 1486 1485 1485 1487 1491 1494 1498 1502 1506 1510 1513 1518 1521 1523 1524 1525 1527 1528 1530 1533 1535 1536 1537 1538 1540 1541 1542 1543 1544 1545 1545 1546 1547
1503 1504 1507 1504 1503 1498 1492 1489 1490 1490 1491 1491 1489 1488 1488 1486 1485 1484 1484 1486 1490 1494 1498 1501 1506 1510 1513 1517 1519 1522 1525 1525 1527 1528 1531 1532 1534 1536 1538 1539 1541 1542 1542 1543 1544 1545 1546 1546 1548
1502 1505 1508 1503 1496 1494 1489 1483 1490 1490 1491 1490 1490 1486 1486 1484 1483 1482 1483 1486 1489 1494 1497 1501 1506 1510 1513 1517 1520 1522 1524 1526 1527 1528 1530 1532 1534 1536 1538 1539 1541 1542 1542 1543 1544 1545 1546 1547 1548
1502 1503 1502 1501 1496 1494 1492 1488 1489 1488 1491 1491 1490 1485 1484 1482 1482 1482 1482 1486 1489 1493 1497 1501 1506 1509 1512 1515 1517 1519 1521 1524 1527 1529 1531 1533 1534 1536 1537 1539 1541 1542 1543 1543 1544 1546 1547 1547 1548
1502 1503 1502 1494 1488 1486 1487 1486 1488 1488 1487 1489 1489 1488 1482 1478 1480 1482 1484 1486 1490 1493 1498 1502 1507 1511 1514 1517 1519 1521 1522 1523 1525 1527 1529 1532 1534 1536 1537 1539 1540 1541 1542 1543 1544 1545 1546 1547 1549
1497 1496 1490 1493 1491 1486 1479 1484 1485 1484 1483 1484 1486 1484 1479 1477 1478 1480 1482 1486 1489 1493 1497 1502 1507 1511 1514 1517 1520 1521 1522 1524 1525 1528 1529 1531 1534 1536 1537 1538 1539 1541 1541 1543 1544 1545 1546 1547 1548
1497 1495 1493 1489 1487 1479 1476 1479 1480 1482 1481 1482 1481 1479 1475 1475 1477 1479 1481 1484 1487 1492 1496 1500 1505 1509 1513 1517 1519 1521 1523 1524 1526 1527 1530 1532 1533 1535 1537 1539 1540 1540 1541 1541 1542 1543 1545 1546 1546
1493 1491 1482 1481 1486 1472 1474 1476 1479 1480 1479 1478 1478 1477 1475 1473 1475 1477 1479 1483 1486 1491 1496 1499 1502 1507 1511 1514 1518 1521 1522 1524 1526 1527 1529 1531 1532 1533 1534 1537 1539 1539 1540 1541 1542 1543 1544 1545 1546
1487 1482 1474 1475 1474 1469 1473 1476 1477 1478 1477 1476 1475 1474 1470 1471 1472 1474 1475 1479 1484 1488 1492 1496 1500 1504 1508 1511 1514 1517 1521 1522 1524 1526 1527 1529 1531 1532 1533 1534 1536 1538 1539 1540 1541 1542 1543 1543 1544
1477 1463 1470 1471 1472 1474 1474 1475 1476 1475 1472 1472 1474 1473 1471 1472 1473 1474 1476 1479 1482 1487 1491 1495 1498 1502 1505 1507 1510 1513 1516 1519 1522 1524 1525 1527 1528 1530 1531 1532 1532 1534 1536 1537 1538 1539 1540 1541 1543
1469 1466 1467 1468 1470 1471 1471 1472 1471 1472 1469 1469 1470 1471 1473 1472 1472 1473 1475 1478 1481 1485 1490 1493 1496 1499 1503 1506 1509 1512 1513 1515 1518 1521 1523 1525 1527 1528 1529 1530 1530 1532 1534 1535 1536 1537 1537 1539 1540
1463 1463 1464 1466 1467 1467 1468 1467 1469 1467 1466 1467 1467 1467 1469 1471 1471 1472 1474 1477 1480 1483 1486 1490 1493 1496 1501 1503 1506 1509 1511 1513 1516 1519 1521 1523 1524 1526 1528 1528 1529 1528 1528 1532 1534 1533 1535 1536 1538
1455 1459 1461 1462 1461 1462 1463 1462 1466 1463 1462 1463 1464 1464 1464 1465 1467 1469 1471 1474 1477 1481 1484 1487 1490 1494 1498 1501 1504 1506 1508 1510 1513 1516 1519 1521 1524 1525 1526 1526 1526 1525 1526 1528 1530 1531 1531 1534 1534
1455 1456 1457 1455 1458 1458 1463 1454 1449 1459 1457 1457 1460 1460 1461 1461 1463 1465 1468 1470 1474 1477 1481 1484 1488 1492 1495 1498 1499 1502 1505 1510 1512 1515 1516 1519 1522 1522 1524 1525 1525 1524 1524 1528 1528 1528 1529 1532 1533
1451 1456 1451 1443 1452 1454 1459 1433 1439 1443 1448 1450 1452 1455 1456 1457 1459 1462 1465 1468 1471 1475 1477 1482 1484 1488 1491 1493 1496 1499 1503 1508 1511 1514 1517 1518 1519 1520 1521 1521 1522 1522 1524 1526 1526 1528 1528 1530 1531
1440 1426 1442 1442 1440 1444 1446 1434 1433 1440 1441 1443 1444 1448 1451 1453 1456 1459 1463 1465 1469 1472 1474 1477 1481 1484 1487 1491 1492 1496 1502 1505 1509 1511 1513 1516 1516 1518 1518 1519 1520 1521 1520 1524 1526 1526 1527 1528 1528
1414 1430 1431 1432 1430 1435 1437 1437 1434 1433 1437 1438 1438 1442 1445 1448 1452 1456 1459 1462 1466 1469 1471 1473 1476 1479 1482 1486 1489 1494 1498 1501 1504 1507 1510 1511 1511 1514 1515 1518 1517 1518 1518 1525 1528 1525 1523 1524 1524
1412 1418 1420 1424 1423 1426 1424 1427 1432 1430 1434 1435 1434 1435 1438 1443 1447 1451 1455 1458 1461 1464 1466 1468 1471 1474 1478 1482 1485 1490 1494 1498 1501 1504 1506 1506 1506 1509 1512 1498 1513 1517 1521 1524 1527 1521 1519 1521 1520
1417 1418 1419 1419 1418 1424 1421 1422 1425 1427 1425 1428 1429 1430 1431 1436 1440 1445 1449 1452 1455 1458 1462 1464 1467 1470 1475 1479 1484 1489 1493 1496 1498 1501 1503 1505 1506 1509 1509 1512 1516 1519 1522 1523 1521 1517 1518 1517 1515
1416 1416 1419 1413 1416 1419 1421 1418 1419 1417 1418 1421 1423 1425 1426 1428 1432 1437 1442 1446 1450 1452 1457 1461 1463 1466 1474 1478 1483 1488 1491 1494 1496 1497 1499 1501 1503 1504 1506 1511 1516 1517 1516 1516 1516 1516 1514 1513 1511
1410 1414 1419 1416 1414 1417 1415 1412 1408 1404 1405 1411 1413 1418 1420 1422 1427 1431 1435 1440 1445 1448 1452 1456 1460 1466 1473 1476 1480 1485 1487 1490 1494 1495 1497 1500 1501 1504 1507 1509 1515 1515 1514 1511 1513 1514 1511 1510 1509
1395 1407 1417 1416 1415 1416 1415 1418 1391 1400 1399 1400 1405 1409 1413 1416 1420 1424 1430 1435 1438 1441 1447 1452 1460 1465 1469 1473 1477 1482 1486 1489 1491 1493 1496 1499 1501 1502 1505 1510 1510 1512 1512 1511 1509 1511 1508 1506 1506
1400 1404 1414 1418 1418 1425 1401 1407 1389 1392 1391 1390 1395 1401 1406 1410 1414 1420 1426 1428 1432 1438 1443 1450 1456 1463 1468 1473 1476 1477 1486 1489 1490 1492 1495 1497 1500 1501 1503 1505 1507 1509 1508 1507 1506 1507 1505 1504 1504
1392 1397 1416 1428 1426 1405 1392 1408 1377 1388 1388 1384 1387 1396 1404 1410 1412 1417 1422 1426 1431 1436 1441 1448 1454 1458 1463 1470 1477 1480 1483 1487 1489 1491 1494 1497 1498 1499 1501 1503 1505 1505 1505 1505 1505 1503 1502 1501 1498
1380 1377 1379 1397 1398 1386 1396 1393 1379 1377 1386 1389 1390 1396 1402 1410 1414 1417 1422 1428 1433 1438 1442 1449 1453 1456 1465 1472 1483 1480 1483 1482 1487 1489 1494 1495 1498 1499 1500 1501 1503 1503 1503 1501 1498 1497 1496 1496 1493
1372 1376 1365 1378 1377 1388 1386 1381 1377 1379 1388 1391 1395 1397 1404 1410 1414 1419 1424 1430 1434 1440 1443 1450 1451 1455 1462 1465 1480 1483 1483 1481 1489 1491 1492 1495 1496 1497 1498 1499 1498 1497 1496 1495 1495 1494 1492 1490 1488
1355 1359 1375 1368 1385 1385 1377 1375 1367 1380 1386 1391 1395 1399 1405 1411 1415 1421 1426 1431 1436 1440 1444 1451 1452 1457 1461 1462 1480 1486 1485 1488 1490 1488 1490 1492 1493 1495 1495 1494 1494 1493 1493 1493 1492 1491 1489 1487 1485
1364 1359 1360 1358 1364 1366 1379 1374 1374 1372 1380 1387 1394 1400 1406 1412 1416 1422 1428 1433 1439 1442 1447 1450 1454 1456 1464 1472 1483 1486 1490 1489 1487 1484 1488 1491 1491 1492 1492 1492 1492 1491 1490 1490 1489 1488 1485 1483 1482
1359 1350 1350 1358 1369 1361 1356 1373 1379 1380 1382 1390 1397 1402 1408 1415 1420 1427 1431 1436 1442 1446 1449 1454 1460 1466 1474 1481 1486 1488 1488 1486 1483 1483 1487 1489 1489 1488 1488 1488 1489 1488 1487 1487 1486 1483 1481 1480 1477